Location: Sungai Bunut
(2.6333°N, 113.7333°E)
Time: 08:54:02
(UTC+00:00)

Vanguard 3 - Pass Details

Date: 09 December 2023
Orbit: 508 x 3239 km, 33.3° (Epoch: 21 February)

Event Time Altitude Azimuth Distance (km) Brightness Sun altitude
Rises 14:15:27 0° 293° (WNW) 6,551 12.0 -54.2°
Enters shadow 14:24:26 - 319° (NW) 4,890 11.1 -56.0°
Reaches altitude 10° 14:25:35 10° 323° (NW) 4,714 - -56.2°
Maximum altitude 14:28:32 11° 337° (NNW) 4,346 - -56.8°
Drops below altitude 10° 14:31:11 10° 351° (N) 4,144 - -57.3°
Sets 14:37:47 0° 25° (NNE) 4,369 - -58.5°
